User: anonymous   Login
Location: Newark
(20.0000°S, 47.0000°E)
Time: 21:02:54
(UTC+00:00)
Language:

N. Korean satellite - Orbit

View from above orbital plane
View from above orbital plane
View from above satellite
View from above satellite

Ground track
Ground track

The orbit data is extracted from the following two-line orbital elements,

1 39026U 12072A   20215.98696549  .00001468  00000-0  54054-4 0  9999
2 39026  97.2244 211.4104 0039098  79.0383 281.5252 15.28702246424419
Epoch (UTC): 02 August 2020 23:41:13
Eccentricity: 0.0039098
inclination: 97.2244°
perigee height: 453 km
apogee height: 506 km
right ascension of ascending node: 211.4104°
argument of perigee: 79.0383°
revolutions per day: 15.28702246
mean anomaly at epoch: 281.5252°
orbit number at epoch: 42441

The dashed part of the orbit path shows where the satellite is in the earth's shadow,  

DLR